Location: Praha
(50.0833°N, 14.4667°E)
Time: 22:46:06
(UTC+01:00)

ISS - Visible Passes

Search period start: 20 January 2026 00:00
Search period end: 30 January 2026 00:00
Orbit: 413 x 424 km, 51.6° (Epoch: 20 January)

Date Brightness Start Highest point End Pass type
(mag) Time Alt. Az. Time Alt. Az. Time Alt. Az.
20 Jan -3.7 17:53:08 10° W 17:56:29 71° N 17:58:22 24° ENE visible
20 Jan -1.2 19:30:04 10° WNW 19:31:18 21° WNW 19:31:18 21° WNW visible
21 Jan -3.7 18:42:09 10° WNW 18:45:22 67° N 18:45:22 67° N visible
22 Jan -3.7 17:54:11 10° W 17:57:30 64° N 17:59:26 23° ENE visible
22 Jan -1.3 19:31:01 10° WNW 19:32:22 22° WNW 19:32:22 22° WNW visible
23 Jan -3.9 18:43:02 10° WNW 18:46:23 89° NNE 18:46:26 87° E visible
24 Jan -3.8 17:55:00 10° WNW 17:58:21 75° N 18:00:31 20° E visible
24 Jan -1.3 19:31:52 10° W 19:33:28 23° W 19:33:28 23° W visible
25 Jan -3.2 18:43:44 10° WNW 18:47:01 53° SSW 18:47:36 46° SSE visible
26 Jan -3.6 17:55:37 10° WNW 17:58:57 73° SSW 18:01:48 13° ESE visible
26 Jan -1.1 19:32:53 10° W 19:34:45 18° SW 19:34:45 18° SW visible
27 Jan -1.9 18:44:28 10° W 18:47:20 27° SW 18:49:05 17° SSE visible
28 Jan -2.4 17:56:07 10° W 17:59:16 39° SSW 18:02:25 10° SE visible
29 Jan -0.8 18:45:42 10° WSW 18:47:19 13° SW 18:48:56 10° SSW visible
